Weather History for OJAM - May, 2013

Change the Weather History Date:

Tuesday, May 7, 2013

  Actual Average Record
Temperature  
Mean Temperature 76 °F -  
Max Temperature 86 °F 80 °F 95 °F (2007)
Min Temperature 65 °F 59 °F 50 °F (2000)
Cooling Degree Days 10    
Growing Degree Days 26 (Base 50)    
Moisture  
Dew Point 43 °F    
Average Humidity 29    
Maximum Humidity 52    
Minimum Humidity 10    
Precipitation  
Precipitation 0.00 in 0.00 in - ()
Sea Level Pressure  
Sea Level Pressure 29.87 in    
Wind  
Wind Speed 2 mph ()    
Max Wind Speed 12 mph    
Max Gust Speed -    
Visibility 3.0 miles    
Events Rain , Thunderstorm    
Averages and records for this station are not official NWS values.
T = Trace of Precipitation, MM = Missing Value Source: Averaged Metar Reports

Daily Weather History Graph

Daily Weather History Graph

Search for Another Location

Airport or City:

Trip Planner

Search our weather history database for the weather conditions in past years. The results will help you decide how hot, cold, wet, or windy it might be!

Date:

Astronomy

May. 07, 2013 Rise Set
Actual Time 5:44 AM EEST 7:20 PM EEST
Civil Twilight 5:18 AM EEST 7:47 PM EEST
Nautical Twilight 4:46 AM EEST 8:18 PM EEST
Astronomical Twilight 4:13 AM EEST 8:52 PM EEST
Moon 3:58 AM EEST (5/7) 5:06 PM EEST (5/7)
Length of Visible Light 14h 28m
Length of Day
13h 35m
Waning Crescent, 7% of the Moon is Illuminated
May 7
Waning Crescent
May 10
New
May 18
First Quarter
May 25
Full
May 31
Last Quarter

Hourly Weather History & Observations

Time (EEST) Temp. Dew Point Humidity Pressure Visibility Wind Dir Wind Speed Gust Speed Precip Events Conditions
12:00 AM 72 °F 47 °F 31% 29.78 in 3 mi Calm Calm - -   Haze
12:00 AM 71.6 °F 48.2 °F 43% 29.92 in 3.1 mi Calm Calm - N/A   Haze
1:00 AM 69.8 °F 46.4 °F 43% 29.92 in 3.1 mi Calm Calm - N/A   Haze
2:00 AM 69.8 °F 44.6 °F 40% 29.89 in 3.1 mi Calm Calm - N/A   Haze
3:00 AM 69 °F 45 °F 31% 29.76 in 3 mi Calm Calm - -   Haze
3:00 AM 69.8 °F 44.6 °F 40% 29.89 in 3.1 mi Calm Calm - N/A   Haze
4:00 AM 69.8 °F 44.6 °F 40% 29.89 in 3.1 mi Calm Calm - N/A   Haze
5:00 AM 68.0 °F 44.6 °F 43% 29.89 in 3.1 mi Calm Calm - N/A   Haze
6:00 AM 67 °F 44 °F 32% 29.77 in 2 mi Calm Calm - -   Haze
6:00 AM 68.0 °F 44.6 °F 43% 29.89 in 2.5 mi Calm Calm - N/A   Haze
7:00 AM 66.2 °F 48.2 °F 52% 29.92 in 2.5 mi Calm Calm - N/A   Haze
8:00 AM 73.4 °F 42.8 °F 33% 29.92 in 2.5 mi Calm Calm - N/A   Haze
9:00 AM 78 °F 45 °F 21% 29.78 in 3 mi Calm Calm - -   Haze
9:00 AM 78.8 °F 44.6 °F 30% 29.92 in 3.1 mi Calm Calm - N/A   Haze
10:00 AM 80.6 °F 41.0 °F 24% 29.95 in 3.1 mi Calm Calm - N/A   Haze
11:00 AM 82.4 °F 39.2 °F 21% 29.95 in 3.1 mi Calm Calm - N/A   Haze
12:00 PM 85 °F 38 °F 10% 29.78 in 3 mi ENE 4.6 mph - -   Haze
12:00 PM 84.2 °F 37.4 °F 19% 29.92 in 3.1 mi ENE 4.6 mph - N/A   Haze
1:00 PM 84.2 °F 41.0 °F 22% 29.92 in 3.1 mi NW 4.6 mph - N/A   Haze
2:00 PM 86.0 °F 42.8 °F 22% 29.89 in 3.1 mi West 9.2 mph - N/A   Haze
3:00 PM 85 °F 43 °F 14% 29.76 in 2 mi North 6.9 mph - -   Haze
3:00 PM 84.2 °F 42.8 °F 23% 29.89 in 2.2 mi North 6.9 mph - N/A   Haze
4:00 PM 82.4 °F 39.2 °F 21% 29.89 in 2.5 mi East 5.8 mph - N/A   Haze
4:15 PM 82.4 °F 39.2 °F 21% 29.89 in 2.5 mi East 5.8 mph - N/A Thunderstorm Thunderstorm
5:00 PM 80.6 °F 37.4 °F 21% 29.89 in 2.5 mi North 9.2 mph - N/A Rain Rain
6:00 PM 82 °F 47 °F 19% 29.74 in 3 mi NNW 11.5 mph - -   Haze
6:00 PM 82.4 °F 46.4 °F 28% 29.86 in 3.1 mi NNW 11.5 mph - N/A   Haze
7:00 PM 78.8 °F 46.4 °F 32% 29.89 in 3.7 mi NW 11.5 mph - N/A   Unknown
8:00 PM 75.2 °F 44.6 °F 34% 29.89 in 3.7 mi NW 8.1 mph - N/A   Unknown
9:00 PM 75 °F 43 °F 21% 29.77 in 6 mi NNW 9.2 mph - -  
9:00 PM 75.2 °F 42.8 °F 31% 29.92 in - NNW 9.2 mph - N/A   Clear
10:00 PM 75.2 °F 41.0 °F 29% 29.92 in - NNW 9.2 mph - N/A   Clear
11:00 PM 73.4 °F 41.0 °F 31% 29.92 in - NNW 9.2 mph - N/A   Clear